Preview of NWS' New Version of Forecast
This preview is not operational and should not be used for support decisions.

Regional Weather Roundup (RWR)

Issued by Philadelphia/Mt Holly (PHI)

                            
000
ASUS41 KPHI 172112
RWRPHI

REGIONAL WEATHER ROUNDUP
NATIONAL WEATHER SERVICE MOUNT HOLLY NJ
400 PM EST THU JAN 17 2019

NOTE:  "FAIR" INDICATES FEW OR NO CLOUDS BELOW 12,000 FEET WITH NO
SIGNIFICANT WEATHER AND/OR OBSTRUCTIONS TO VISIBILITY.

 * = STATION DOES NOT REPORT PRECIPITATION (E.G. RAIN, SNOW, ETC.) 
        OR FOG.

NJZ015>026-172200-
SOUTHERN NEW JERSEY
  
CITY           SKY/WX    TMP DP  RH WIND       PRES   REMARKS
POMONA         FAIR      32  23  69 E6        30.31S WCI  26          
WILDWOOD*      FAIR      34  20  56 E6        30.30F WCI  29          
MILLVILLE      FAIR      33  14  45 E8        30.29F WCI  26          
WRIGHTSTOWN    MOCLDY    31  15  51 E10       30.28R WCI  22          
MOUNT HOLLY    FAIR      33   6  32 E5        30.30S WCI  29          
TRENTON        FAIR      32   9  38 SE7       30.30R WCI  26          

$$
NJZ001>014-172200-
NORTHERN NEW JERSEY
  
CITY           SKY/WX    TMP DP  RH WIND       PRES   REMARKS
SUSSEX         FAIR      29   8  41 NE5       30.26F WCI  24          
ANDOVER*         N/A     30   3  31 CALM      30.25F                  
MORRISTOWN     MOCLDY    30   9  40 SE8       30.30F WCI  23          
NEWARK         CLOUDY    31  12  45 VRB5      30.30F WCI  26          
TETERBORO      FAIR      31   9  39 E12       30.30F WCI  22          
CALDWELL       FAIR      30   2  30 SE3       30.30F                  
SOMERVILLE     FAIR      32   9  38 SE5       30.28F WCI  27          
ALLAIRE*       MOCLDY    30  19  63 E6        30.32F WCI  24          
TOMS RIVER*    FAIR      32  21  64 CALM      30.33S                  

$$
PAZ043-044-047-054-055-060>062-066>071-172200-
EASTERN PENNSYLVANIA
  
CITY           SKY/WX    TMP DP  RH WIND       PRES   REMARKS
PHILADELPHIA   CLOUDY    34   7  32 SE7       30.30F WCI  28          
NORTH PHILA    FAIR      34   6  31 SE5       30.32R WCI  30          
BLUE BELL*     FAIR      32   5  32 E5        30.30F WCI  27          
DOYLESTOWN     MOCLDY    30   3  31 SE5       30.28R WCI  25          
QUAKERTOWN*    MOCLDY    30   1  29 SE6       30.27  WCI  24          
PERKASIE*      FAIR      28   1  31 SE5       30.28S WCI  23          
POTTSTOWN      FAIR      30   5  34 E5        30.29F WCI  25          
LANCASTER      CLOUDY    32  19  58 SE6       30.27S WCI  26          
COATESVILLE    CLOUDY    30  16  55 SE5       30.27F WCI  25          
READING        FAIR      31  13  47 SE5       30.27S WCI  26          
ALLENTOWN      MOCLDY    33   5  30 SE6       30.27S WCI  28          
MOUNT POCONO   MOCLDY    23   3  42 SE6       30.16F WCI  16          
HAZLETON       FAIR     N/A N/A N/A SE7       30.19F                  
LEHIGHTON      MOCLDY    30   1  29 CALM      30.27S                  
WILKES BARRE   MOCLDY    28   6  39 CALM      30.20F                  

$$
DEZALL-MDZ008-012-015-019-020-172200-
DELAWARE AND EASTERN MARYLAND
  
CITY           SKY/WX    TMP DP  RH WIND       PRES   REMARKS
WILMINGTON     FAIR      32  15  49 E6        30.30F WCI  26          
DOVER          MOCLDY    34  21  58 SE5       30.29F WCI  30          
GEORGETOWN     FAIR      38  26  62 E10       30.29F WCI  31          
EASTON         MOSUNNY   37  25  60 E5        30.32R WCI  34          
ABERDEEN       CLOUDY    32  19  59 S8        30.30F WCI  25          
PATUXENT       PTSUNNY   39  30  70 SE8       30.27  WCI  33          
OCEAN CITY     FAIR      38  28  67 E8        30.29F WCI  32          
WALLOPS ISLAND FAIR      40  29  64 NE7       30.28F                  
CAMBRIDGE      SUNNY     37  27  65 E5        30.28S WCI  34          
SALISBURY      FAIR      38  28  67 E8        30.28S WCI  32          

$$
PAZ001-021-NYZ056-072-MDZ011-DCZ001-172200-
OTHER NEARBY LOCATIONS
  
CITY           SKY/WX    TMP DP  RH WIND       PRES   REMARKS
HARRISBURG     CLOUDY    31  19  61 SE7       30.26R WCI  24          
STATE COLLEGE  CLOUDY    28  18  64 SE5       30.17S WCI  23          
WILLIAMSPORT   CLOUDY    29  11  47 VRB5      30.23S WCI  24          
BINGHAMTON     FAIR      22   5  48 S7        30.15F WCI  13          
NEW YORK CITY  FAIR      31   3  30 MISG      30.32F                  
BALTIMORE      CLOUDY    34  23  64 E8        30.27S WCI  27          
WASHINGTON DC  CLOUDY    38  24  57 E6        30.27F WCI  33          

$$